| time (UTC) | temp F | wind direction | speed knots | gust knots | rain 1hr in | rain 24hr in | rain mn in | humidity % | barometer mb |
| 20260504220601 | 62 | 220 | 5.2 | 10.4 | 0.00 | 0.00 | 0.00 | 42 | 1009.6 |
| 20260504215518 | 62 | 226 | 4.3 | 10.4 | 0.00 | 0.00 | 0.00 | 42 | 1009.7 |
| 20260504214518 | 62 | 204 | 5.2 | 9.6 | 0.00 | 0.00 | 0.00 | 43 | 1009.8 |
| 20260504213518 | 63 | 189 | 5.2 | 11.3 | 0.00 | 0.00 | 0.00 | 42 | 1009.8 |
| 20260504212521 | 62 | 156 | 5.2 | 7.8 | 0.00 | 0.00 | 0.00 | 43 | 1009.8 |
| 20260504211518 | 63 | 204 | 4.3 | 7.8 | 0.00 | 0.00 | 0.00 | 43 | 1009.8 |
| 20260504210519 | 63 | 206 | 5.2 | 11.3 | 0.00 | 0.00 | 0.00 | 42 | 1009.8 |
| 20260504205519 | 63 | 224 | 2.6 | 5.2 | 0.00 | 0.00 | 0.00 | 43 | 1009.9 |
| 20260504204520 | 63 | 175 | 3.5 | 7.8 | 0.00 | 0.00 | 0.00 | 43 | 1009.8 |
| 20260504203519 | 64 | 212 | 4.3 | 7.8 | 0.00 | 0.00 | 0.00 | 42 | 1009.8 |
| 20260504202519 | 63 | 181 | 6.1 | 11.3 | 0.00 | 0.00 | 0.00 | 42 | 1009.9 |
| 20260504201540 | 63 | 213 | 3.5 | 7.8 | 0.00 | 0.00 | 0.00 | 43 | 1009.9 |
| 20260504200520 | 62 | 205 | 5.2 | 11.3 | 0.00 | 0.00 | 0.00 | 43 | 1009.9 |
| 20260504195516 | 62 | 236 | 4.3 | 7.8 | 0.00 | 0.00 | 0.00 | 43 | 1009.9 |
| 20260504194537 | 61 | 144 | 4.3 | 8.7 | 0.00 | 0.00 | 0.00 | 43 | 1010.1 |
| 20260504193537 | 62 | 200 | 3.5 | 7.8 | 0.00 | 0.00 | 0.00 | 43 | 1010.1 |
| 20260504192517 | 62 | 220 | 4.3 | 7.8 | 0.00 | 0.00 | 0.00 | 44 | 1010.2 |
| 20260504191517 | 61 | 200 | 1.7 | 4.3 | 0.00 | 0.00 | 0.00 | 42 | 1010.3 |
| 20260504190518 | 61 | 155 | 5.2 | 8.7 | 0.00 | 0.00 | 0.00 | 44 | 1010.5 |
| 20260504185518 | 62 | 181 | 4.3 | 7.8 | 0.00 | 0.00 | 0.00 | 44 | 1010.6 |
| 20260504184521 | 61 | 208 | 2.6 | 8.7 | 0.00 | 0.00 | 0.00 | 44 | 1010.7 |
| 20260504183538 | 61 | 215 | 4.3 | 8.7 | 0.00 | 0.00 | 0.00 | 44 | 1010.7 |
| 20260504182538 | 60 | 188 | 4.3 | 7.8 | 0.00 | 0.00 | 0.00 | 45 | 1010.9 |
| 20260504181518 | 60 | 196 | 5.2 | 9.6 | 0.00 | 0.00 | 0.00 | 45 | 1010.9 |
| 20260504180519 | 59 | 185 | 3.5 | 7.0 | 0.00 | 0.00 | 0.00 | 46 | 1011.1 |
| 20260504175518 | 59 | 188 | 4.3 | 8.7 | 0.00 | 0.00 | 0.00 | 45 | 1011.2 |
| 20260504174519 | 59 | 244 | 5.2 | 9.6 | 0.00 | 0.00 | 0.00 | 45 | 1011.2 |
| 20260504173519 | 59 | 207 | 4.3 | 8.7 | 0.00 | 0.00 | 0.00 | 46 | 1011.4 |
| 20260504172519 | 58 | 166 | 5.2 | 9.6 | 0.00 | 0.00 | 0.00 | 46 | 1011.5 |
| 20260504171540 | 57 | 173 | 4.3 | 10.4 | 0.00 | 0.00 | 0.00 | 45 | 1011.6 |
| 20260504170520 | 57 | 214 | 3.5 | 7.0 | 0.00 | 0.00 | 0.00 | 46 | 1011.7 |
| 20260504150538 | 52 | 148 | 6.1 | 11.3 | 0.00 | 0.00 | 0.00 | 50 | 1012.7 |
| 20260504140520 | 51 | 187 | 4.3 | 9.6 | 0.00 | 0.00 | 0.00 | 51 | 1012.4 |
| 20260504130520 | 50 | 162 | 4.3 | 6.1 | 0.00 | 0.00 | 0.00 | 53 | 1011.9 |
| 20260504110531 | 42 | 33 | 1.7 | 4.3 | 0.00 | 0.00 | 0.00 | 90 | 1010.9 |
| 20260504100518 | 50 | 154 | 4.3 | 6.1 | 0.00 | 0.00 | 0.00 | 70 | 1009.6 |
| 20260504081519 | 44 | 162 | 1.7 | 2.6 | 0.00 | 0.00 | 0.00 | 92 | 1008.9 |
| 20260504080520 | 44 | 238 | 0.9 | 1.7 | 0.00 | 0.00 | 0.00 | 91 | 1009.0 |
| 20260504050519 | 48 | 293 | 0.9 | 2.6 | 0.00 | 0.00 | 0.00 | 80 | 1008.7 |
| 20260504045536 | 49 | 261 | 0.9 | 1.7 | 0.00 | 0.00 | 0.00 | 81 | 1008.6 |
| 20260504044520 | 50 | 212 | 0.9 | 2.6 | 0.00 | 0.00 | 0.00 | 75 | 1008.6 |
| 20260504043520 | 51 | 235 | 1.7 | 3.5 | 0.00 | 0.00 | 0.00 | 72 | 1008.5 |
| 20260504042520 | 51 | 244 | 0.9 | 3.5 | 0.00 | 0.00 | 0.00 | 71 | 1008.4 |
| 20260504041520 | 52 | 258 | 0.9 | 1.7 | 0.00 | 0.00 | 0.00 | 69 | 1008.3 |
| 20260504040518 | 53 | 228 | 1.7 | 3.5 | 0.00 | 0.00 | 0.00 | 65 | 1008.2 |
| 20260504035517 | 53 | 337 | 0.9 | 2.6 | 0.00 | 0.00 | 0.00 | 65 | 1008.1 |
| 20260504034517 | 53 | 301 | 0.0 | 1.7 | 0.00 | 0.00 | 0.00 | 68 | 1008.0 |
| 20260504033518 | 55 | 216 | 1.7 | 3.5 | 0.00 | 0.00 | 0.00 | 63 | 1007.8 |
| 20260504032518 | 56 | 332 | 0.0 | 0.9 | 0.00 | 0.00 | 0.00 | 59 | 1007.8 |
| 20260504031518 | 58 | 284 | 0.9 | 2.6 | 0.00 | 0.00 | 0.00 | 59 | 1007.7 |
| 20260504030518 | 58 | 210 | 0.0 | 1.7 | 0.00 | 0.00 | 0.00 | 55 | 1007.5 |
| 20260504025519 | 57 | 163 | 1.7 | 2.6 | 0.00 | 0.00 | 0.00 | 64 | 1007.4 |
| 20260504024522 | 58 | 329 | 0.9 | 1.7 | 0.00 | 0.00 | 0.00 | 60 | 1007.3 |
| 20260504023518 | 59 | 204 | 0.9 | 1.7 | 0.00 | 0.00 | 0.00 | 60 | 1007.3 |
| 20260504022518 | 60 | 312 | 0.0 | 0.9 | 0.00 | 0.00 | 0.00 | 57 | 1007.2 |
| 20260504021519 | 63 | 241 | 0.9 | 1.7 | 0.00 | 0.00 | 0.00 | 55 | 1007.2 |
| 20260504020519 | 64 | 135 | 0.9 | 2.6 | 0.00 | 0.00 | 0.00 | 50 | 1007.1 |
| 20260504015516 | 67 | 277 | 0.9 | 1.7 | 0.00 | 0.00 | 0.00 | 48 | 1007.2 |
| 20260504014520 | 68 | 293 | 0.9 | 2.6 | 0.00 | 0.00 | 0.00 | 43 | 1007.2 |
| 20260504013519 | 70 | 277 | 1.7 | 3.5 | 0.00 | 0.00 | 0.00 | 39 | 1007.2 |
| 20260504012520 | 71 | 300 | 2.6 | 4.3 | 0.00 | 0.00 | 0.00 | 41 | 1007.2 |
| 20260504011517 | 72 | 350 | 3.5 | 5.2 | 0.00 | 0.00 | 0.00 | 35 | 1007.3 |
| 20260504010517 | 73 | 348 | 3.5 | 7.0 | 0.00 | 0.00 | 0.00 | 35 | 1007.3 |
| 20260504005537 | 73 | 347 | 1.7 | 3.5 | 0.00 | 0.00 | 0.00 | 35 | 1007.5 |
| 20260504004521 | 71 | 4 | 1.7 | 2.6 | 0.00 | 0.00 | 0.00 | 36 | 1007.6 |
| 20260504003521 | 71 | 356 | 3.5 | 6.1 | 0.00 | 0.00 | 0.00 | 36 | 1007.6 |
| 20260504002538 | 73 | 13 | 5.2 | 8.7 | 0.00 | 0.00 | 0.00 | 32 | 1007.6 |
| 20260504001518 | 73 | 10 | 5.2 | 9.6 | 0.00 | 0.00 | 0.00 | 32 | 1007.6 |
| 20260504000558 | 74 | 15 | 4.3 | 10.4 | 0.00 | 0.00 | 0.00 | 31 | 1007.7 |
| 20260503235519 | 73 | 9 | 4.3 | 8.7 | 0.00 | 0.00 | 0.00 | 34 | 1007.9 |
| 20260503234518 | 73 | 7 | 5.2 | 8.7 | 0.00 | 0.00 | 0.00 | 33 | 1007.9 |
| 20260503233516 | 73 | 16 | 6.1 | 10.4 | 0.00 | 0.00 | 0.00 | 33 | 1007.9 |
| 20260503232516 | 72 | 13 | 6.1 | 11.3 | 0.00 | 0.00 | 0.00 | 32 | 1008.0 |
| 20260503231519 | 72 | 13 | 7.8 | 11.3 | 0.00 | 0.00 | 0.00 | 33 | 1008.1 |
| 20260503230519 | 72 | 25 | 4.3 | 8.7 | 0.00 | 0.00 | 0.00 | 34 | 1008.2 |
| 20260503225519 | 72 | 12 | 5.2 | 8.7 | 0.00 | 0.00 | 0.00 | 35 | 1008.4 |
| 20260503224520 | 71 | 9 | 6.1 | 10.4 | 0.00 | 0.00 | 0.00 | 35 | 1008.5 |
| 20260503223537 | 72 | 2 | 6.1 | 8.7 | 0.00 | 0.00 | 0.00 | 35 | 1008.6 |
| 20260503222520 | 73 | 13 | 5.2 | 11.3 | 0.00 | 0.00 | 0.00 | 34 | 1008.6 |
| 20260503221520 | 74 | 18 | 5.2 | 9.6 | 0.00 | 0.00 | 0.00 | 34 | 1008.8 |